[[{"header":{"parameterUnit":"m.s-1","parameterCategory":1,"la1":30.2991,"la2":30.254,"lo1":-89.0895,"lo2":-89.0444,"dy":0.0017,"dx":0.0017,"nx":28,"ny":28,"refTime":"2023-08-27T09:00:00:Z","depth":0,"parameterNumber":2,"parameterNumberName":"U-component_of_WINDS"},"data":[0,0,0,0,0,0,0,0,0,0,0,0,0,0,0,0,0,0,0,0,0,0,0,0,0,0,0,0,0,0,0,0,0,0,0,0,0,0,0,0,0,0,0,0,0,0,0,0,0,0,0,0,0,0,0,0,0,0,-1.0388,-1.0387,0,-1.0293,-1.0292,-1.0291,-1.0242,-1.0242,-1.0242,-1.0242,-1.0144,-1.0142,-1.0139,0,0,0,0,0,0,0,0,0,0,0,0,0,-1.0527,-1.0525,-1.0388,-1.0387,-1.0386,-1.0294,-1.0292,-1.0291,-1.0242,-1.0242,-1.0242,-1.0242,-1.0145,-1.0142,-1.0139,0,0,0,0,0,0,0,0,0,0,0,0,0,-1.0453,-1.0524,-1.0388,-1.035,-1.0346,-1.0294,-1.0292,-1.0291,-1.0242,-1.0242,-1.0242,-1.0242,-1.0146,-1.0142,-1.0139,-1.0117,0,0,-1.0127,-1.0125,0,0,0,0,0,0,0,0,-1.0457,-1.0448,-1.0357,-1.0353,-1.0348,-1.028,-1.0305,-1.0232,-1.0242,-1.0282,-1.0242,-1.0242,-1.0189,-1.0182,-1.0164,-1.0112,-1.0108,-1.0127,-1.0124,-1.0123,-1.0121,0,0,0,0,0,0,0,-1.0463,-1.0452,-1.0351,-1.0356,-1.035,-1.0338,-1.0328,-1.0291,-1.0237,-1.0278,-1.0274,-1.0264,-1.0187,-1.0168,-1.0162,-1.0106,-1.0127,-1.0123,-1.0121,-1.0119,-1.0032,-1.0032,0,0,0,0,0,0,-1.0474,-1.0457,-1.0354,-1.0348,-1.0404,-1.0336,-1.0324,-1.0302,-1.0237,-1.0227,-1.0264,-1.0262,-1.0175,-1.0166,-1.0158,-1.0128,-1.0123,-1.0119,-1.0117,-1.0032,-1.0032,-1.0032,0,0,0,0,0,0,-1.0477,-1.0465,-1.0357,-1.0401,-1.0386,-1.0334,-1.0309,-1.03,-1.0281,-1.0227,-1.0217,-1.0255,-1.0174,-1.0163,-1.0127,-1.0124,-1.0117,-1.0114,-1.0032,-1.0032,-1.0032,-1.0068,0,0,0,0,0,0,-1.0481,-1.0467,-1.0458,-1.0401,-1.0384,-1.0328,-1.0309,-1.0298,-1.0275,-1.0271,-1.0215,-1.0206,-1.0173,-1.0133,-1.0124,-1.0118,-1.0111,-1.0032,-1.0032,-1.0032,-1.0067,-1.0069,-1.0071,0,0,0,0,0,-1.0486,-1.0471,-1.0457,-1.0445,-1.0372,-1.0328,-1.0319,-1.0281,-1.0275,-1.0265,-1.023,-1.0208,-1.0126,-1.013,-1.0119,-1.0112,-1.0032,-1.0032,-1.0032,-1.0066,-1.0069,-1.0071,0,0,0,0,0,0,-1.0528,-1.0463,-1.0447,-1.0413,-1.0377,-1.032,-1.0307,-1.0286,-1.025,-1.0248,-1.0203,-1.0191,-1.016,-1.0132,-1.0138,-1.0088,-1.0077,-1.0075,-1.0107,-1.0109,-1.0111,-1.0118,-1.0108,0,0,0,0,0,-1.0533,-1.0503,-1.0448,-1.0424,-1.0406,-1.036,-1.034,-1.0314,-1.0275,-1.0259,-1.0221,-1.0184,-1.015,-1.0128,-1.0094,-1.0063,-1.0051,-1.0054,-1.0056,-1.0058,-1.0056,-1.0038,-1.0039,-1.0032,-1.0032,-1.0032,0,0,-1.0543,-1.0504,-1.0488,-1.0431,-1.04,-1.037,-1.0347,-1.0316,-1.0294,-1.0254,-1.0218,-1.0189,-1.0145,-1.0112,-1.0095,-1.0088,-1.0055,-1.0058,-1.006,-1.0057,-1.0038,-1.0039,-1.004,-1.0032,-1.0032,-1.0032,0,0,-1.0547,-1.0514,-1.049,-1.046,-1.0413,-1.0383,-1.0377,-1.0324,-1.0304,-1.0267,-1.0237,-1.021,-1.0152,-1.0121,-1.0098,-1.0092,-1.007,-1.0082,-1.0093,-1.0076,-1.0077,-1.0077,-1.0075,-1.0074,-1.0081,-1.0081,-1.0081,0,-1.0565,-1.0519,-1.0481,-1.0452,-1.0427,-1.0391,-1.0367,-1.0339,-1.0284,-1.0268,-1.0261,-1.0188,-1.0156,-1.0115,-1.0114,-1.0096,-1.0089,-1.0087,-1.008,-1.008,-1.0079,-1.0077,-1.0076,-1.0082,-1.0082,-1.0082,-1.0082,0,-1.0544,-1.0512,-1.0499,-1.0446,-1.0421,-1.0395,-1.0353,-1.0331,-1.0309,-1.028,-1.0243,-1.0203,-1.016,-1.0149,-1.0126,-1.0105,-1.0102,-1.0089,-1.0076,-1.0083,-1.0079,-1.0078,-1.0085,-1.0084,-1.0084,-1.0083,0,0,-1.0569,-1.0497,-1.0493,-1.0469,-1.0415,-1.039,-1.0363,-1.0321,-1.0304,-1.0268,-1.0243,-1.0196,-1.0183,-1.0157,-1.0131,-1.0117,-1.0114,-1.0104,-1.0103,-1.0107,-1.0089,-1.0099,-1.0099,-1.01,-1.01,-1.01,-1.0093,0,-1.0564,-1.0512,-1.0478,-1.044,-1.041,-1.0377,-1.0352,-1.0317,-1.029,-1.0261,-1.023,-1.0197,-1.0183,-1.0167,-1.0151,-1.0118,-1.011,-1.0118,-1.0077,-1.0076,-1.0088,-1.0097,-1.0107,-1.0102,-1.0091,-1.0091,-1.0091,0,-1.0551,-1.0516,-1.0475,-1.0426,-1.0412,-1.0391,-1.0351,-1.0324,-1.0284,-1.0265,-1.0237,-1.021,-1.018,-1.0172,-1.013,-1.0136,-1.0118,-1.0099,-1.0098,-1.0091,-1.0083,-1.009,-1.01,-1.0099,-1.0088,-1.0088,-1.0089,0,-1.0573,-1.0516,-1.0484,-1.0465,-1.0407,-1.0393,-1.0368,-1.0328,-1.0305,-1.027,-1.0255,-1.0217,-1.0196,-1.0168,-1.0132,-1.013,-1.0094,-1.0082,-1.0077,-1.0078,-1.007,-1.007,-1.0076,-1.0059,-1.006,-1.006,-1.006,0,-1.0571,-1.0547,-1.0493,-1.0474,-1.0446,-1.0407,-1.0381,-1.0354,-1.0319,-1.0293,-1.0262,-1.0239,-1.0194,-1.0166,-1.0138,-1.0107,-1.0098,-1.0082,-1.0075,-1.0084,-1.0086,-1.007,-1.0069,-1.0059,-1.0059,-1.0059,-1.0059,0,-1.059,-1.0553,-1.0516,-1.0465,-1.0451,-1.0433,-1.0389,-1.0369,-1.034,-1.0308,-1.0299,-1.0254,-1.0219,-1.0181,-1.0133,-1.0115,-1.0085,-1.0075,-1.0099,-1.0095,-1.0091,-1.0092,-1.0085,-1.0083,-1.007,-1.007,-1.007,0,-1.0591,-1.0572,-1.0518,-1.0499,-1.0475,-1.0445,-1.0422,-1.0383,-1.0361,-1.0315,-1.03,-1.0263,-1.0231,-1.0177,-1.014,-1.0104,-1.0092,-1.0093,-1.0086,-1.0097,-1.0092,-1.0093,-1.0091,-1.0094,-1.0095,-1.0095,-1.0095,0,-1.0596,-1.0579,-1.0547,-1.0509,-1.0483,-1.0451,-1.0418,-1.0404,-1.0359,-1.0336,-1.03,-1.0275,-1.0227,-1.0191,-1.015,-1.0125,-1.0102,-1.0098,-1.0094,-1.0103,-1.0117,-1.0109,-1.0103,-1.0098,-1.0097,-1.0097,-1.0097,-1.0097,-1.0605,-1.0587,-1.0546,-1.0512,-1.0484,-1.0454,-1.0433,-1.0402,-1.0371,-1.0328,-1.0308,-1.0272,-1.0234,-1.0177,-1.0152,-1.0124,-1.0117,-1.0113,-1.0111,-1.011,-1.0113,-1.0123,-1.0117,-1.0117,-1.0116,-1.0116,-1.0116,0,-1.0608,-1.0581,-1.055,-1.0505,-1.0478,-1.046,-1.0423,-1.0402,-1.0371,-1.0337,-1.0307,-1.0266,-1.0231,-1.0192,-1.0154,-1.0139,-1.0128,-1.0131,-1.0131,-1.0125,-1.0121,-1.0127,-1.014,-1.014,-1.014,-1.014,-1.014,-1.014,-1.0606,-1.0574,-1.0553,-1.0507,-1.0479,-1.0444,-1.0424,-1.0397,-1.037,-1.0325,-1.0296,-1.0271,-1.0235,-1.0195,-1.0162,-1.0152,-1.0139,-1.0145,-1.0131,-1.0128,-1.0126,-1.0124,-1.0129,-1.0142,-1.0142,-1.0137,-1.0137,-1.0137]},{"header":{"parameterUnit":"m.s-1","parameterCategory":1,"la1":30.2991,"la2":30.254,"lo1":-89.0895,"lo2":-89.0444,"dy":0.0017,"dx":0.0017,"nx":28,"ny":28,"refTime":"2023-08-27T09:00:00:Z","depth":0,"parameterNumber":3,"parameterNumberName":"V-component_of_WINDS"},"data":[0,0,0,0,0,0,0,0,0,0,0,0,0,0,0,0,0,0,0,0,0,0,0,0,0,0,0,0,0,0,0,0,0,0,0,0,0,0,0,0,0,0,0,0,0,0,0,0,0,0,0,0,0,0,0,0,0,0,5.0404,5.0404,0,5.0413,5.0413,5.0413,5.0408,5.0408,5.0408,5.0407,5.0415,5.0415,5.0416,0,0,0,0,0,0,0,0,0,0,0,0,0,5.0382,5.0383,5.0404,5.0404,5.0404,5.0413,5.0413,5.0413,5.0408,5.0408,5.0408,5.0407,5.0415,5.0415,5.0416,0,0,0,0,0,0,0,0,0,0,0,0,0,5.0391,5.0383,5.0404,5.0403,5.0403,5.0412,5.0413,5.0413,5.0408,5.0408,5.0407,5.0407,5.0415,5.0415,5.0416,5.0427,0,0,5.0418,5.0418,0,0,0,0,0,0,0,0,5.0391,5.0392,5.0403,5.0403,5.0403,5.0409,5.0408,5.0417,5.0408,5.0406,5.0407,5.0407,5.0413,5.0414,5.0416,5.0427,5.0428,5.0418,5.0418,5.0419,5.0419,0,0,0,0,0,0,0,5.039,5.0392,5.0407,5.0403,5.0403,5.0402,5.0402,5.041,5.0411,5.0406,5.0406,5.0407,5.0413,5.0416,5.0416,5.0428,5.0418,5.0419,5.0419,5.0419,5.0448,5.0448,0,0,0,0,0,0,5.039,5.0391,5.0407,5.0408,5.0396,5.0402,5.0403,5.0407,5.0411,5.0412,5.0407,5.0407,5.0415,5.0416,5.0417,5.0429,5.0419,5.0419,5.042,5.0447,5.0448,5.0448,0,0,0,0,0,0,5.0389,5.0391,5.0407,5.0399,5.0401,5.0403,5.0408,5.0408,5.041,5.0412,5.0412,5.041,5.0415,5.0416,5.0424,5.043,5.042,5.042,5.0447,5.0447,5.0448,5.0455,0,0,0,0,0,0,5.0389,5.0391,5.0395,5.0399,5.0402,5.0415,5.0408,5.0408,5.0411,5.0411,5.0414,5.0415,5.0414,5.0423,5.0425,5.043,5.0421,5.0446,5.0447,5.0448,5.0454,5.0456,5.0457,0,0,0,0,0,5.0388,5.0397,5.0396,5.0398,5.0407,5.0415,5.0416,5.0416,5.0412,5.0416,5.0417,5.0415,5.0429,5.0424,5.0426,5.0432,5.0446,5.0447,5.0448,5.0454,5.0456,5.0457,0,0,0,0,0,0,5.0393,5.0397,5.0396,5.0407,5.0411,5.0414,5.0419,5.0418,5.0422,5.0421,5.0421,5.0421,5.043,5.0432,5.0427,5.0442,5.0437,5.0438,5.0441,5.0443,5.0444,5.0443,5.0421,0,0,0,0,0,5.0396,5.0402,5.0405,5.0414,5.0416,5.0418,5.0421,5.042,5.0424,5.0425,5.0427,5.0431,5.0436,5.0439,5.0444,5.0455,5.0455,5.0459,5.0461,5.0462,5.0463,5.0468,5.047,5.0451,5.0451,5.0451,0,0,5.0401,5.0404,5.0408,5.0415,5.0418,5.0424,5.0419,5.0426,5.043,5.0426,5.0435,5.0436,5.044,5.0449,5.0454,5.0451,5.0468,5.0463,5.0464,5.0464,5.0469,5.0471,5.0473,5.0451,5.0451,5.0451,0,0,5.0413,5.0416,5.0424,5.0427,5.0431,5.0432,5.0434,5.0438,5.0439,5.0447,5.0445,5.045,5.0459,5.0461,5.0464,5.0477,5.0475,5.0479,5.0486,5.0491,5.0493,5.0494,5.0498,5.05,5.048,5.048,5.048,0,5.0418,5.0428,5.0428,5.0435,5.0438,5.0436,5.0443,5.0446,5.0452,5.0454,5.0451,5.0462,5.0465,5.0475,5.0478,5.048,5.0482,5.0478,5.0492,5.0494,5.0495,5.0499,5.0501,5.048,5.048,5.048,5.048,0,5.0434,5.0441,5.0447,5.0453,5.0457,5.0464,5.0465,5.0469,5.0468,5.0469,5.0477,5.048,5.0485,5.0488,5.0487,5.0497,5.0496,5.0493,5.0487,5.0497,5.0501,5.0503,5.0481,5.0481,5.0481,5.0481,0,0,5.045,5.0456,5.0458,5.0461,5.0466,5.0471,5.0478,5.0483,5.0486,5.049,5.0496,5.0504,5.0501,5.0504,5.0503,5.0508,5.0518,5.0504,5.0504,5.0506,5.053,5.0532,5.0534,5.0516,5.0517,5.0517,5.0529,0,5.0462,5.0475,5.0475,5.0487,5.0493,5.0491,5.0497,5.05,5.0501,5.0506,5.0507,5.0512,5.0508,5.051,5.0515,5.0516,5.0523,5.0515,5.0521,5.0522,5.052,5.0536,5.0538,5.055,5.0531,5.0531,5.0531,0,5.0479,5.0484,5.0496,5.05,5.0502,5.0508,5.0513,5.0518,5.0521,5.0522,5.0525,5.0524,5.053,5.0525,5.0534,5.0529,5.0531,5.0532,5.0533,5.0533,5.0527,5.0537,5.0553,5.0555,5.0534,5.0534,5.0533,0,5.0489,5.0498,5.0507,5.0509,5.0514,5.0518,5.052,5.0523,5.0527,5.0531,5.0533,5.0538,5.054,5.0544,5.0544,5.054,5.0553,5.0548,5.0553,5.0553,5.0556,5.0556,5.0573,5.0558,5.0558,5.0558,5.0558,0,5.0502,5.051,5.0511,5.0517,5.0525,5.0525,5.0533,5.0535,5.0538,5.0543,5.0541,5.0546,5.0545,5.055,5.055,5.0558,5.0559,5.0559,5.0559,5.0559,5.0559,5.0561,5.056,5.0559,5.0558,5.0558,5.0558,0,5.0515,5.0516,5.0525,5.0529,5.053,5.0536,5.0539,5.0544,5.0545,5.0552,5.0553,5.0555,5.056,5.056,5.0567,5.0567,5.0576,5.0575,5.0575,5.0574,5.058,5.058,5.0599,5.0602,5.0585,5.0585,5.0585,0,5.0523,5.0529,5.0534,5.0537,5.054,5.0546,5.0549,5.0549,5.0553,5.0557,5.0561,5.0567,5.0571,5.058,5.0582,5.0586,5.0585,5.0592,5.0586,5.0586,5.0585,5.0585,5.0586,5.0593,5.0593,5.0593,5.0593,0,5.0539,5.0539,5.0544,5.055,5.0554,5.0558,5.0562,5.0565,5.0566,5.057,5.0576,5.0579,5.0586,5.0591,5.0596,5.0597,5.0596,5.0595,5.0597,5.0597,5.0597,5.0597,5.0578,5.0595,5.0595,5.0595,5.0595,5.0594,5.0549,5.0554,5.0558,5.0564,5.0567,5.0571,5.0576,5.0578,5.0583,5.0588,5.0588,5.0594,5.0598,5.0604,5.0606,5.0611,5.0608,5.0611,5.0611,5.0612,5.0612,5.0596,5.0611,5.0611,5.0611,5.0611,5.0611,0,5.0564,5.0567,5.0572,5.0578,5.0583,5.0581,5.0585,5.0589,5.0595,5.0598,5.0603,5.0609,5.0614,5.0616,5.0621,5.0625,5.0624,5.0626,5.0626,5.0626,5.0614,5.0612,5.0626,5.0626,5.0626,5.0626,5.0626,5.0626,5.0573,5.0581,5.0582,5.0592,5.0594,5.0601,5.0603,5.0607,5.0609,5.0617,5.0621,5.0623,5.0625,5.063,5.0635,5.0635,5.0637,5.064,5.064,5.0628,5.0627,5.0625,5.0624,5.064,5.064,5.0651,5.0651,5.0651]}]]